Regional Weather Roundup
Issued by NWS

Home | Current Version | Previous Version | Graphics & Text | Print | Product List | Glossary On
Versions: 1 2 3 4 5 6 7 8 9 10 11 12 13 14 15 16 17 18 19 20 21 22 23 24 25 26 27 28 29 30 31 32 33 34 35 36 37 38 39 40 41 42 43 44 45 46 47 48 49 50
000
ASUS43 KDTX 120210
RWRMI
MICHIGAN HOURLY REGIONAL WEATHER ROUNDUP
NATIONAL WEATHER SERVICE DETROIT/PONTIAC MI
1000 PM EDT FRI JUL 11 2014

NOTE: "FAIR" INDICATES FEW OR NO CLOUDS BELOW 12,000 FEET WITH NO
SIGNIFICANT WEATHER AND/OR OBSTRUCTION TO VISIBILITY.

MIZ047>049-052>055-059>063-066>070-074>076-081>083-120300-
SOUTHEAST LOWER MICHIGAN

CITY           SKY/WX    TMP DP  RH WIND       PRES   REMARKS
ADRIAN         MOCLDY    71  59  65 SE3       30.17S
ALMA           PTCLDY    67  61  80 CALM      30.16R
ANN ARBOR      CLOUDY    70  57  63 SE5       30.17S
BAD AXE        CLOUDY    68  60  75 CALM      30.17R
CARO           MOCLDY    67  65  93 CALM      30.15S
DETROIT CITY   CLOUDY    75  55  49 S5        30.17S
DETROIT        CLOUDY    72  58  61 SE3       30.17F
FLINT          MOCLDY    73  59  61 CALM      30.16R
GROSSE ILE     CLOUDY    72  59  64 SE5       30.16S
HILLSDALE      CLOUDY    67  64  90 CALM      30.18R
HOWELL         CLOUDY    70  58  65 S5        30.16S

CITY           SKY/WX    TMP DP  RH WIND       PRES   REMARKS
JACKSON        MOCLDY    72  59  63 S5        30.16R
LAMBERTVILLE   MOCLDY    70  59  68 E3        30.18R
LANSING        MOCLDY    71  59  65 W3        30.16R
LAPEER         FAIR      69  59  71 SE3       30.17S
MASON          MOCLDY    68  62  81 CALM      30.16R
MONROE         MOCLDY    72  61  68 SE5       30.16R
MT. CLEMENS    CLOUDY    68  58  71 S5        30.16S
PONTIAC        CLOUDY    72  56  57 S3        30.16S
PORT HOPE        N/A     68  59  73 SE6       30.15R
PORT HURON     CLOUDY    64  61  88 CALM      30.18R
TRI CITIES     PTCLDY    74  59  59 CALM      30.16R
TROY           CLOUDY    73  54  51 S5        30.18S
SAGINAW HB     PTCLDY    70  61  73 CALM      30.15R
$$
MIZ043>046-050>051-056>058-064>065-071>073-077>080-120300-
SOUTHWEST LOWER MICHIGAN

CITY           SKY/WX    TMP DP  RH WIND       PRES   REMARKS
BATTLE CREEK   CLOUDY    72  60  66 SW7       30.18R
BENTON HARBOR  CLOUDY    68  63  84 CALM      30.15S
BIG RAPIDS     MOCLDY    69  59  71 W3        30.15S
COLDWATER      CLOUDY    71  62  74 SW6       30.17R
FREMONT        FAIR      67  58  72 CALM      30.15S
HOLLAND        CLOUDY    71  61  70 CALM      30.16S
GRAND RAPIDS   CLOUDY    73  60  63 CALM      30.16R
IONIA          FAIR      70  60  70 CALM      30.15R
KALAMAZOO      CLOUDY    72  60  66 CALM      30.17R
LUDINGTON      PTCLDY    69  55  60 S3        30.14R
MARSHALL       CLOUDY    69  63  81 CALM      30.16R
MOUNT PLEASANT MOCLDY    66  61  82 CALM      30.16R
MUSKEGON       CLOUDY    72  55  55 SE3       30.14S
SOUTH HAVEN    CLOUDY    67  64  89 CALM      30.15S
$$
MIZ016>042-120300-
NORTHERN LOWER MICHIGAN

CITY           SKY/WX    TMP DP  RH WIND       PRES   REMARKS
ALPENA         LGT RAIN  70  57  63 S7        30.13R
BEAVER ISLAND  MOCLDY    68  49  51 SW12G17   30.10S
BELLAIRE       CLOUDY    68  61  78 CALM      30.12R
CADILLAC       MOCLDY    68  60  74 SW3       30.16R
CHARLEVOIX     CLOUDY    71  56  59 S3        30.14S
FRANKFORT      CLOUDY    71  53  51 S5        30.12S
GAYLORD        CLOUDY    70  60  70 SW7       30.15R
GRAYLING       MOCLDY    70  56  61 S3        30.16R
HARBOR SPRINGS CLOUDY    65  60  83 CALM      30.11S
HOUGHTON LAKE  MOCLDY    70  57  63 S6        30.16R
MANISTEE       MOCLDY    70  54  56 CALM      30.14S VSB 3/4
OSCODA         CLOUDY    67  58  71 CALM      30.15R
PELLSTON       CLOUDY    67  62  84 S3        30.12R
ROGERS CITY    CLOUDY    69  64  84 W3        30.13R
TRAVERSE CITY  CLOUDY    73  55  53 SW3       30.11S
$$
MIZ007>008-015-120300-
EASTERN UPPER MICHIGAN

CITY           SKY/WX    TMP DP  RH WIND       PRES   REMARKS
KINROSS        CLOUDY    64  57  77 S6        30.11S VSB 1
MACKINAC ISLAN CLOUDY    62  57  83 S3        30.11S
NEWBERRY       MOCLDY    60  53  78 S8        30.08F
S. S. MARIE    LGT RAIN  63  58  83 SE7       30.09F
MUNISING         N/A     70  54  56 S8        30.01F
$$
MIZ004>006-011>014-085-120300-
CENTRAL UPPER MICHIGAN

CITY           SKY/WX    TMP DP  RH WIND       PRES   REMARKS
MANISTIQUE     CLOUDY    57  53  88 S5        30.07S
ESCANABA       CLOUDY    66  55  68 S8        30.05S
MENOMINEE      PTCLDY    70  57  64 SW7       30.05S
SAWYER-GWINN   CLEAR     68  59  73 S10       30.02F
$$
MIZ001>003-009>011-084-120300-
WESTERN UPPER MICHIGAN

CITY           SKY/WX    TMP DP  RH WIND       PRES   REMARKS
IRON MOUNTAIN  MOCLDY    70  56  61 S8        30.02F
HOUGHTON       CLOUDY    69  62  78 SW6       29.95S
COPPER HARBOR    N/A     69  63  81 VRB5      29.93R
IRONWOOD       CLEAR     72  61  68 SW9G16    29.95
$$

ABBREVIATIONS USED IN REMARKS
   TC - TEMPERATURE IN CELSIUS
  WCI - WIND CHILL INDEX
   HX - HEAT INDEX
  VSB - VISIBILITY



USA.gov is the U.S. government's official web portal to all federal, state and local government web resources and services.